Location: Brede
(50.9167°N, 0.6000°E)
Time: 19:26:17
(UTC+00:00)

SL-16 R/B - Pass Details

Date: 08 August 2020
Orbit: 985 x 1007 km, 99.5° (Epoch: 24 September)

Event Time Altitude Azimuth Distance (km) Brightness Sun altitude
Exits shadow 02:45:05 20° 227° (SW) 2,154 3.7 -14.3°
Maximum altitude 02:48:03 28° 267° (W) 1,789 3.5 -14.0°
Drops below altitude 10° 02:53:22 10° 325° (NW) 2,791 5.1 -13.4°
Sets 02:56:16 0° 337° (NNW) 3,743 5.9 -13.1°
